User: anonymous   Login
Location: Unspecified
(0.0000°N, 0.0000°E)
Time: 19:09:47
(UTC+00:00)
Language:

Explorer 7 - Orbit

View from above orbital plane
View from above orbital plane
View from above satellite
View from above satellite

Ground track
Ground track

The orbit data is extracted from the following two-line orbital elements,

1 00022U 59009A   16178.19655596  .00000537  00000-0  65051-4 0  9992
2 00022  50.2849  69.2815 0143666 115.7652 245.8200 14.93539774  8133
Epoch (UTC): 26 June 2016 04:43:02
Eccentricity: 0.0143666
inclination: 50.2849°
perigee height: 487 km
apogee height: 687 km
right ascension of ascending node: 69.2815°
argument of perigee: 115.7652°
revolutions per day: 14.93539774
mean anomaly at epoch: 245.8200°
orbit number at epoch: 813

The dashed part of the orbit path shows where the satellite is in the earth's shadow,  

DLR